SCP
6 7 10 10 8 8 8 8 8 7 6 5 5 6 5 4 4 4 3 3 2 2 1 1 1 1 1 1 1 1 1 1 0 0 0 0 1 1 1 1 1 1 1
6 7 10 10 8 7 6 6 5 5 5 4 4 5 5 4 4 4 4 3 2 2 1 1 1 1 1 1 1 1 1 1 0 0 0 0 0 1 1 1 1 1 1
6 6 7 7 6 5 5 4 4 4 4 4 4 4 4 4 4 4 5 4 3 2 2 1 1 1 1 1 1 1 1 1 0 0 0 0 0 0 0 0 1 1 1
5 6 5 5 5 4 4 3 3 4 4 4 5 5 5 4 4 4 5 5 4 3 2 2 2 1 1 1 1 1 1 1 0 0 0 0 0 0 0 0 0 1 1
5 5 4 4 4 4 3 3 3 4 5 6 6 6 6 5 4 4 5 5 5 4 3 2 2 2 1 1 1 1 1 1 0 0 0 0 0 0 0 0 0 0 1
4 4 4 4 4 4 3 3 4 5 6 7 7 6 6 4 4 4 4 5 5 4 3 3 2 2 2 1 1 1 1 1 1 0 0 0 0 0 0 0 0 0 0
3 3 3 4 4 4 3 3 4 5 7 7 7 6 5 4 3 3 3 4 4 4 3 3 3 3 2 1 1 1 1 1 1 1 1 0 0 0 0 0 0 0 1
3 3 3 3 4 4 4 3 4 5 6 6 6 5 4 3 3 2 2 2 2 3 3 3 3 3 2 2 2 1 1 1 1 1 1 1 0 0 0 1 1 0 0
2 2 2 3 4 4 3 3 3 4 4 4 4 3 3 3 2 2 2 1 1 2 2 3 3 3 3 2 2 1 1 1 1 1 1 1 1 1 1 1 1 1 0
2 2 2 2 3 3 3 3 3 4 4 3 2 2 3 3 3 3 2 2 2 2 2 2 2 2 2 3 2 1 1 1 1 1 1 1 1 1 1 1 1 1 1
2 2 2 2 3 3 2 2 3 4 4 3 2 2 2 3 3 3 2 2 2 2 2 2 2 2 2 2 2 2 1 1 1 1 1 1 1 1 1 1 1 1 1
2 2 2 2 2 2 2 2 3 3 3 3 3 3 2 2 3 3 3 2 2 2 2 2 2 1 2 2 2 1 1 1 1 1 1 1 1 1 1 1 1 1 1
3 3 3 3 3 3 3 3 3 3 3 3 3 3 2 2 2 3 3 2 2 2 2 2 2 1 1 1 1 1 1 1 1 1 1 1 2 2 2 1 1 1 1
4 4 3 3 4 4 4 4 3 3 3 3 3 3 3 2 2 2 2 2 2 1 1 1 1 1 1 1 1 1 1 1 1 1 1 1 1 1 1 1 1 1 1
6 5 4 3 3 4 5 5 5 4 4 4 4 4 3 3 2 2 2 2 2 1 1 1 1 1 1 1 1 1 1 1 1 1 1 1 1 1 1 1 1 1 1
6 5 4 4 4 4 5 6 6 6 5 5 5 4 4 3 3 2 3 3 2 2 2 2 2 2 1 1 1 1 1 1 1 1 1 1 1 1 1 0 0 1 1
6 5 5 5 5 6 6 6 7 7 7 7 6 5 4 4 3 3 3 4 3 3 3 3 2 2 1 0 0 1 1 1 1 1 1 1 1 1 1 0 0 0 0
7 7 7 7 8 8 8 7 7 8 8 8 7 6 5 4 4 4 4 4 4 3 3 3 3 2 1 0 0 0 1 1 1 1 1 1 1 1 0 0 0 0 1
9 10 11 11 10 9 8 7 7 7 8 8 7 6 5 5 5 4 4 4 3 3 3 2 2 1 0 0 0 0 0 1 1 1 1 1 1 0 0 0 0 0 1
11 11 12 12 11 9 7 6 7 7 7 6 6 6 5 5 5 5 4 3 2 2 1 1 1 0 0 0 0 0 0 1 1 0 0 0 0 0 0 0 0 0 0
10 11 11 10 10 10 8 7 7 7 6 5 5 5 5 4 4 4 3 2 1 1 1 1 0 0 0 0 0 0 0 0 0 0 0 0 0 0 0 0 0 0 0
9 9 9 9 9 10 9 7 7 7 6 5 4 4 3 3 2 2 2 1 1 1 1 0 0 0 0 0 0 0 0 0 0 0 0 0 0 0 0 0 0 0 0
7 7 7 8 8 9 8 7 6 6 5 4 3 2 1 1 1 1 1 1 1 0 0 0 0 0 0 0 0 0 0 0 0 0 0 0 0 0 0 0 0 0 0
5 5 4 5 5 6 6 4 4 3 3 2 1 1 0 0 0 0 0 0 0 0 0 0 0 0 0 0 0 0 0 0 0 0 0 0 0 0 0 0 0 0 0
3 3 2 2 2 2 2 2 1 1 1 1 0 0 0 0 0 0 0 0 0 0 0 0 0 0 0 0 0 0 0 0 0 0 0 0 0 0 0 0 0 0 0
2 2 1 0 0 0 1 1 1 0 0 0 0 0 0 0 0 0 0 0 0 0 0 0 0 0 0 0 0 0 0 0 0 0 0 0 0 0 0 0 0 0 0
Wind_Speed
10 9 10 10 10 9 10 11 10 9 8 7 6 5 4 3 3 4 6 4 3 4 1 1 3 1 1 2 2 1 2 1 1 1 1 2 3 4 3 3 3 4 5
11 10 9 9 10 10 10 11 11 10 9 6 5 4 5 3 3 3 5 5 4 5 4 2 3 2 2 2 1 1 0 2 2 1 1 2 1 2 4 4 4 4 4
12 12 11 10 9 10 11 10 10 10 9 8 5 5 4 3 3 4 4 4 4 4 2 3 1 2 3 3 2 2 3 1 1 2 0 0 0 1 1 3 3 3 3
10 11 11 11 10 10 10 9 10 10 9 8 8 9 7 6 5 5 5 4 4 3 3 3 2 1 0 4 3 4 1 1 2 1 1 1 1 0 1 1 2 4 4
10 10 10 9 9 9 10 9 9 9 9 9 9 9 7 5 5 5 7 5 4 3 4 4 3 2 1 3 2 3 0 1 2 1 2 2 2 2 2 2 2 2 3
9 9 9 8 8 8 9 9 10 9 9 9 9 8 9 8 7 7 7 5 4 4 4 5 3 3 2 3 2 1 2 1 2 2 2 1 1 1 1 2 3 2 2
9 10 9 10 9 9 9 9 10 10 9 9 9 9 8 8 8 8 8 6 5 4 5 5 4 3 3 3 2 2 1 2 0 2 2 2 1 1 1 0 1 1 2
10 9 9 9 9 9 9 10 10 9 9 8 8 7 7 6 5 6 6 5 4 5 6 6 5 4 4 4 3 2 3 2 1 3 2 2 2 2 2 1 1 1 1
10 10 10 9 8 8 9 9 9 8 8 7 6 6 7 6 6 7 5 4 3 6 7 6 6 4 4 2 3 2 2 3 2 3 2 2 2 1 2 2 1 1 2
10 11 11 10 9 9 9 9 9 8 8 8 7 7 6 6 6 6 5 4 4 4 7 6 6 5 4 3 2 2 2 2 2 2 1 1 2 2 1 1 2 1 2
11 11 11 10 10 10 10 9 9 8 7 7 6 7 7 6 6 5 5 4 4 4 5 5 5 5 5 4 4 3 3 4 3 3 2 2 2 3 3 2 2 2 2
11 12 12 11 11 11 10 10 9 9 8 7 7 7 6 6 6 6 5 5 5 4 4 4 4 5 5 5 5 5 4 4 4 3 3 2 3 2 2 3 3 2 2
12 12 12 11 10 11 11 11 10 10 10 9 8 7 7 7 6 6 5 5 5 4 4 4 4 4 4 5 5 5 4 3 3 3 2 2 2 1 2 2 3 3 3
11 11 10 10 9 9 10 11 11 10 10 10 9 8 8 7 7 6 6 5 5 4 4 3 3 3 2 1 2 3 3 2 1 1 2 2 2 2 2 2 3 3 3
12 11 10 9 9 9 9 9 9 9 9 9 9 8 8 7 6 6 5 5 4 4 3 2 2 1 2 2 1 0 1 2 3 3 4 5 6 7 5 3 4 4 3
11 12 11 11 10 10 10 9 8 8 8 8 8 8 7 6 6 6 5 5 4 4 5 5 5 6 5 6 7 5 4 4 4 4 4 5 6 7 7 7 6 5 3
10 11 11 10 9 9 9 9 9 8 8 7 6 7 7 7 6 6 6 6 6 6 7 7 8 8 8 10 10 9 6 6 6 5 4 4 6 7 5 4 3 3 3
7 9 9 9 9 9 9 8 8 8 8 7 7 7 7 7 6 6 7 7 7 7 7 8 9 9 10 12 10 9 7 7 6 6 6 6 6 8 7 4 3 2 2
6 5 7 9 8 8 9 9 8 8 7 7 6 6 7 7 8 8 8 7 7 7 8 8 9 10 10 12 10 7 5 6 6 6 7 7 7 10 10 6 5 4 4
9 8 7 8 8 7 8 9 9 8 8 8 7 7 8 9 9 9 8 8 8 9 8 9 9 10 9 12 13 8 4 5 5 5 7 11 9 9 10 6 5 5 6
10 9 9 8 7 8 10 10 10 9 9 9 10 10 9 10 10 9 8 8 9 9 9 9 9 9 9 11 13 12 5 4 3 3 4 4 6 6 7 5 3 3 5
10 10 9 9 8 8 11 11 11 10 10 11 11 11 10 9 10 9 8 8 9 9 8 7 7 6 7 9 10 12 11 8 5 4 4 3 3 4 5 4 4 7 7
10 10 11 12 10 10 11 12 10 11 12 12 12 11 11 10 9 9 8 6 5 5 5 5 6 7 6 6 9 9 9 9 5 4 3 3 4 5 4 3 5 5 4
10 10 12 13 12 11 12 12 11 11 13 13 12 11 11 10 10 8 7 6 5 4 5 5 6 6 6 5 5 4 5 5 5 4 4 6 5 4 5 3 2 2 3
10 11 12 13 13 12 12 11 10 11 13 12 11 10 10 10 11 11 9 9 9 8 7 7 7 6 6 5 6 5 5 5 6 7 4 2 1 2 3 4 4 4 5
11 12 13 13 13 12 12 10 9 10 10 9 8 8 8 8 8 10 10 16 12 14 15 13 10 7 6 3 5 6 7 8 9 6 3 4 5 5 6 6 6 6 6
Wind_Direction
167 159 160 163 160 164 169 168 169 170 166 169 168 165 159 159 153 142 135 158 167 149 195 145 144 226 154 116 128 134 166 232 214 174 172 190 191 188 177 197 170 175 178
166 160 162 168 168 170 173 170 170 170 174 173 166 162 150 162 158 134 142 163 164 164 183 148 181 163 120 123 134 109 212 241 196 206 194 202 198 213 193 177 184 182 174
167 165 168 174 175 174 177 176 171 172 173 168 160 155 147 164 153 146 156 164 167 178 140 146 202 146 175 152 175 185 219 247 213 228 191 98 190 184 187 201 177 161 174
164 167 172 177 180 179 177 172 170 169 170 169 166 168 169 176 173 162 151 155 163 161 153 163 145 149 175 138 195 175 211 225 245 215 175 177 163 140 149 239 179 178 185
163 165 170 171 172 173 171 170 166 166 170 174 173 173 174 174 166 152 144 155 157 166 164 155 146 168 224 135 93 99 287 288 270 267 205 198 191 227 187 193 188 200 187
151 153 157 156 164 171 171 170 165 168 172 174 174 176 178 176 166 155 155 165 158 173 170 155 154 179 168 119 122 123 206 285 341 337 320 205 217 232 209 187 196 197 192
148 150 156 158 165 173 175 169 165 168 172 174 177 180 178 173 169 164 167 173 166 170 168 155 159 173 132 143 160 175 244 202 250 309 312 329 328 344 356 16 223 179 184
149 149 154 155 159 166 170 166 161 161 167 174 177 178 172 171 170 173 167 181 172 163 155 148 166 165 163 177 160 196 194 172 195 260 305 331 321 344 336 328 347 286 239
143 142 147 152 154 159 159 157 150 155 164 169 168 169 168 174 173 168 169 172 159 149 152 158 165 168 176 169 149 233 190 140 197 238 224 254 287 276 297 319 332 321 302
148 144 148 152 152 150 148 146 148 154 161 166 170 168 168 174 172 168 167 156 152 142 154 164 165 168 170 176 193 224 176 172 224 251 264 235 295 305 267 281 298 303 298
151 144 143 145 148 148 149 150 151 154 157 161 164 159 161 163 162 162 156 150 145 150 164 170 170 173 176 182 203 240 186 196 222 241 227 223 283 320 333 324 306 296 298
144 143 142 145 149 151 152 152 155 157 158 158 156 154 157 161 165 162 160 156 159 170 176 177 178 191 188 185 195 226 211 195 212 229 246 241 245 239 288 320 317 312 315
141 142 144 149 152 154 156 156 160 162 163 163 160 156 160 164 165 165 165 165 169 179 185 187 188 204 202 188 198 214 224 206 211 219 220 242 271 281 292 295 312 321 316
140 143 144 147 150 153 156 159 162 162 163 163 162 163 166 166 165 166 168 171 173 180 189 191 194 206 216 208 212 208 214 202 153 66 65 52 41 9 327 318 334 328 326
149 148 148 149 152 153 156 156 160 160 160 160 162 163 164 165 164 164 165 163 171 174 156 131 106 94 83 29 32 6 153 120 97 77 75 71 69 62 47 37 22 4 353
159 154 154 156 159 159 158 156 156 156 157 159 161 159 159 158 158 157 150 137 126 111 105 93 81 70 58 46 60 64 71 83 89 87 82 79 64 62 64 61 54 42 20
157 155 157 157 157 158 155 154 151 149 151 154 155 152 152 154 154 149 132 122 114 104 97 92 85 76 52 49 58 62 74 76 73 69 62 58 53 41 34 46 65 66 67
138 147 148 148 150 151 150 146 147 146 148 149 149 146 145 139 129 120 113 107 104 102 98 94 90 80 55 46 51 57 77 80 76 73 72 71 54 32 20 13 21 24 20
84 109 132 139 139 146 145 141 141 141 141 138 132 131 131 124 116 110 107 105 103 98 95 93 89 81 59 44 46 47 80 83 76 72 66 70 65 36 22 16 13 11 358
63 72 93 106 112 121 127 126 123 120 118 117 113 107 106 106 106 104 103 102 101 98 93 86 81 81 70 49 47 43 68 82 85 86 76 64 58 40 28 20 12 5 354
63 71 79 87 96 106 111 111 108 106 104 100 96 94 96 97 99 101 102 104 101 98 96 94 88 82 77 61 51 46 50 44 65 79 86 72 48 33 21 6 356 343 323
70 77 77 76 81 96 104 103 100 101 99 96 94 92 91 94 96 94 92 97 104 107 108 109 104 93 78 63 54 49 45 35 41 48 56 53 6 349 334 325 317 319 317
77 80 83 79 72 80 95 99 99 101 100 94 91 87 83 82 88 91 94 97 101 109 115 115 107 98 83 66 52 47 43 36 36 33 21 328 300 308 302 267 290 310 323
83 86 87 85 80 79 86 94 96 97 97 97 95 92 87 79 68 65 64 60 48 71 89 85 88 88 71 46 28 27 30 24 26 2 318 286 272 280 309 330 332 331 0
87 86 88 89 87 85 85 86 92 97 99 98 98 96 91 88 77 67 55 64 51 50 64 63 64 72 68 38 25 21 15 4 4 331 302 308 20 19 16 15 18 15 11
93 91 91 89 87 86 85 83 86 93 101 103 104 105 108 108 107 101 80 56 65 66 71 76 83 82 87 77 30 14 353 343 345 338 344 19 26 23 18 12 9 10 10